EHI
0 0 0 0 0 0 0 0 0 0 0 0 0 0 0 0 0 0 0 0 0 0 0 0 0 0 0 0 0 0 0 0 0 0 0 0 0 0 0 0 0 0 0 0
0 0 0 0 0 0 0 0 0 0 0 0 0 0 0 0 0 0 0 0 0 0 0 0 0 0 0 0 0 0 0 0 0 0 0 0 0 0 0 0 0 0 0 0
0 0 0 0 0 0 0 0 0 0 0 0 0 0 0 0 0 0 0 0 0 0 0 0 0 0 0 0 0 0 0 0 0 0 0 0 0 0 0 0 0 0 0 0
0 0 0 0 0 0 0 0 0 0 0 0 0 0 0 0 0 0 0 0 0 0 0 0 0 0 0 0 0 0 0 0 0 0 0 0 0 0 0 0 0 0 0 0
0 0 0 0 0 0 0 0 0 0 0 0 0 0 0 0 0 0 0 0 0 0 0 0 0 0 0 0 0 0 0 0 0 0 0 0 0 0 0 0 0 0 0 0
0 0 0 0 0 0 0 0 0 0 0 0 0 0 0 0 0 0 0 0 0 0 0 0 0 0 0 0 0 0 0 0 0 0 0 0 0 0 0 0 0 0 0 0
0 0 0 0 0 0 0 0 0 0 0 0 0 0 0 0 0 0 0 0 0 0 0 0 0 0 0 0 0 0 0 0 0 0 0 0 0 0 0 0 0 0 0 0
0 0 0 0 0 0 0 0 0 0 0 0 0 0 0 0 0 0 0 0 0 0 0 0 0 0 0 0 0 0 0 0 0 0 0 0 0 0 0 0 0 0 0 0
0 0 0 0 0 0 0 0 0 0 0 0 0 0 0 0 0 0 0 0 0 0 0 0 0 0 0 0 0 0 0 0 0 0 0 0 0 0 0 0 0 0 0 0
0 0 0 0 0 0 0 0 0 0 0 0 0 0 0 0 0 0 0 0 0 0 0 0 0 0 0 0 0 0 0 0 0 0 0 0 0 0 0 0 0 0 0 0
0 0 0 0 0 0 0 0 0 0 0 0 0 0 0 0 0 0 0 0 0 0 0 0 0 0 0 0 0 0 0 0 0 0 0 0 0 0 0 0 0 0 0 0
0 0 0 0 0 0 0 0 0 0 0 0 0 0 0 0 0 0 0 0 0 0 0 0 0 0 0 0 0 0 0 0 0 0 0 0 0 0 0 0 0 0 0 0
0 0 0 0 0 0 0 0 0 0 0 0 0 0 0 0 0 0 0 0 0 0 0 0 0 0 0 0 0 0 0 0 0 0 0 0 0 0 0 0 0 0 0 0
0 0 0 0 0 0 0 0 0 0 0 0 0 0 0 0 0 0 0 0 0 0 0 0 0 0 0 0 0 0 0 0 0 0 0 0 0 0 0 0 0 0 0 0
0 0 0 0 0 0 0 0 0 0 0 0 0 0 0 0 0 0 0 0 0 0 0 0 0 0 0 0 0 0 0 0 0 0 0 0 0 0 0 0 0 0 0 0
0 0 0 0 0 0 0 0 0 0 0 0 0 0 0 0 0 0 0 0 0 0 0 0 0 0 0 0 0 0 0 0 0 0 0 0 0 0 0 0 0 0 0 0
0 0 0 0 0 0 0 0 0 0 0 0 0 0 0 0 0 0 0 0 0 0 0 0 0 0 0 0 0 0 0 0 0 0 0 0 0 0 0 0 0 0 0 0
0 0 0 0 0 0 0 0 0 0 0 0 0 0 0 0 0 0 0 0 0 0 0 0 0 0 0 0 0 0 0 0 0 0 0 0 0 0 0 0 0 0 0 0
0 0 0 0 0 0 0 0 0 0 0 0 0 0 0 0 0 0 0 0 0 0 0 0 0 0 0 0 0 0 0 0 0 0 0 0 0 0 0 0 0 0 0 0
0 0 0 0 0 0 0 0 0 0 0 0 0 0 0 0 0 0 0 0 0 0 0 0 0 0 0 0 0 0 0 0 0 0 0 0 0 0 0 0 0 0 0 0
0 0 0 0 0 0 0 0 0 0 0 0 0 0 0 0 0 0 0 0 0 0 0 0 0 0 0 0 0 0 0 0 0 0 0 0 0 0 0 0 0 0 0 0
0 0 0 0 0 0 0 0 0 0 0 0 0 0 0 0 0 0 0 0 0 0 0 0 0 0 0 0 0 0 0 0 0 0 0 0 0 0 0 0 0 0 0 0
0 0 0 0 0 0 0 0 0 0 0 0 0 0 0 0 0 0 0 0 0 0 0 0 0 0 0 0 0 0 0 0 0 0 0 0 0 0 0 0 0 0 0 0
0 0 0 0 0 0 0 0 0 0 0 0 0 0 0 0 0 0 0 0 0 0 0 0 0 0 0 0 0 0 0 0 0 0 0 0 0 0 0 0 0 0 0 0
0 0 0 0 0 0 0 0 0 0 0 0 0 0 0 0 0 0 0 0 0 0 0 0 0 0 0 0 0 0 0 0 0 0 0 0 0 0 0 0 0 0 0 0
0 0 0 0 0 0 0 0 0 0 0 0 0 0 0 0 0 0 0 0 0 0 0 0 0 0 0 0 0 0 0 0 0 0 0 0 0 0 0 0 0 0 0 0
0 0 0 0 0 0 0 0 0 0 0 0 0 0 0 0 0 0 0 0 0 0 0 0 0 0 0 0 0 0 0 0 0 0 0 0 0 0 0 0 0 0 0 0
Wind_Speed
6 6 5 7 8 9 10 8 7 5 6 7 5 5 5 4 4 4 5 5 6 6 7 7 8 8 7 8 8 8 7 7 7 7 6 6 5 4 4 3 2 3 3 4
4 3 5 8 10 11 11 10 10 10 10 6 4 3 4 3 4 4 4 4 5 6 6 6 7 7 7 7 8 7 7 7 7 7 7 6 6 6 5 5 4 3 3 3
3 3 5 7 7 10 8 8 8 9 6 2 3 4 4 4 4 4 4 4 4 4 5 5 6 6 6 7 7 7 7 8 8 7 6 6 6 6 6 5 4 4 4 4
3 4 5 0 1 5 7 7 9 8 6 5 5 4 5 4 4 4 4 4 4 4 4 5 5 5 5 6 6 6 7 7 7 7 6 6 6 5 6 5 4 4 4 4
2 4 7 3 3 4 5 5 6 9 7 4 2 3 4 4 4 5 5 4 3 3 4 4 4 5 4 5 5 6 7 7 7 7 6 6 6 6 6 5 5 4 4 5
3 4 5 0 3 3 3 4 2 5 6 4 2 4 2 2 3 4 3 3 2 2 3 4 4 4 4 4 5 6 6 7 7 6 6 6 6 6 5 4 4 4 4 4
6 6 7 2 3 5 4 1 1 3 5 6 6 4 2 2 3 4 3 3 2 2 2 3 3 3 3 4 5 6 6 6 6 7 6 6 6 5 5 5 4 4 4 4
6 7 7 5 6 6 2 2 2 4 5 6 7 4 3 3 4 4 3 3 3 2 3 3 3 3 3 4 5 5 5 6 6 7 6 5 5 5 5 5 4 4 4 5
7 6 1 5 6 3 2 4 4 5 5 6 6 7 5 5 5 5 5 4 3 3 3 3 2 3 3 4 4 4 5 5 5 6 6 6 6 6 5 5 4 4 4 5
8 10 8 8 9 8 7 7 7 7 6 7 8 8 7 6 6 6 5 5 4 4 4 4 3 3 4 4 3 4 4 5 5 5 5 6 5 5 5 5 5 5 5 5
10 10 9 8 8 7 7 7 7 7 7 8 8 8 8 7 7 6 5 5 5 5 5 5 4 3 3 3 3 4 4 4 5 5 5 5 5 5 5 4 5 6 5 5
9 7 7 7 6 6 8 8 8 7 8 8 8 9 8 8 7 6 6 5 5 5 5 5 4 4 3 2 3 3 3 4 4 4 4 4 4 4 4 5 7 8 8 7
10 7 9 10 9 8 8 9 8 9 9 8 8 8 8 7 6 6 6 6 7 6 5 5 4 4 3 2 3 3 4 4 3 3 4 4 4 5 5 5 5 6 8 9
11 9 10 10 10 8 8 8 8 8 8 8 7 7 7 6 6 7 7 7 6 5 5 4 4 4 3 3 3 4 4 4 4 3 4 4 4 5 5 6 6 5 6 9
11 11 11 10 9 8 7 6 7 8 8 7 6 6 7 7 8 7 6 5 5 5 5 4 5 5 3 3 4 4 4 3 3 3 3 4 4 4 4 5 5 6 6 6
7 8 9 10 11 10 8 8 8 9 8 7 7 7 7 7 7 5 5 5 5 6 5 5 6 5 3 4 4 4 4 4 4 4 3 4 4 4 4 5 5 5 5 6
8 9 9 9 10 10 10 10 9 9 8 8 8 7 6 6 5 5 5 5 5 5 5 6 5 4 4 4 4 4 3 3 4 4 3 4 4 4 4 4 5 5 5 6
11 11 10 10 10 10 9 9 9 9 8 8 6 6 6 7 7 6 5 4 4 4 5 5 5 4 5 5 4 3 3 3 3 3 3 4 4 4 4 5 5 5 5 5
9 9 10 10 10 9 9 9 8 8 7 6 6 7 7 7 6 5 4 5 5 6 5 5 5 5 5 5 4 3 3 3 3 3 3 4 4 4 4 4 4 4 4 4
6 7 7 8 8 8 8 8 7 6 6 5 6 6 6 6 5 5 5 6 5 4 3 4 4 5 5 5 5 3 3 3 3 3 3 3 4 4 4 4 4 4 4 4
6 6 6 6 7 7 7 7 6 6 5 5 6 6 6 5 4 5 5 5 4 3 3 4 4 4 4 4 5 3 3 3 3 3 3 3 3 3 3 3 4 4 4 4
5 5 6 5 5 5 5 5 5 5 4 4 5 5 4 4 4 4 5 4 3 4 3 3 3 4 4 4 3 3 3 3 3 3 3 3 3 3 3 3 3 3 3 3
5 5 5 4 4 4 3 3 3 4 4 4 5 5 5 4 4 4 4 3 3 4 3 3 4 5 5 3 3 3 3 3 3 3 3 3 3 3 3 3 3 3 3 3
4 4 4 3 2 2 3 3 2 2 3 3 3 4 4 3 3 3 2 3 4 4 3 4 5 5 5 3 3 3 3 3 3 3 3 2 2 2 3 3 3 3 3 4
4 4 3 3 3 3 3 2 1 2 2 2 2 3 3 3 3 2 2 3 4 4 3 4 5 5 4 3 3 3 3 3 2 2 2 2 2 2 2 2 3 3 3 3
4 4 4 4 3 3 2 2 2 2 2 2 2 2 2 1 2 2 2 2 3 3 3 2 3 4 3 3 3 3 2 2 3 2 2 2 2 2 2 2 3 3 3 3
4 3 3 3 3 3 3 3 3 3 3 3 2 2 2 2 2 2 2 2 2 2 2 2 2 2 2 2 2 2 2 2 2 2 2 2 2 2 2 3 3 3 3 3
Wind_Direction
274 280 259 252 242 222 220 233 244 259 265 278 289 291 295 306 318 326 337 343 344 342 343 345 346 349 354 356 356 355 360 3 357 354 357 360 359 352 349 339 312 289 281 270
273 262 264 261 249 233 232 236 245 262 271 276 281 281 286 293 301 306 316 327 333 334 335 337 341 344 348 353 353 355 360 358 354 355 1 3 1 358 357 349 348 347 336 325
266 298 281 256 236 212 214 217 220 237 251 247 256 260 271 277 282 285 295 306 313 317 323 328 334 337 342 344 348 356 359 358 356 357 1 359 357 357 353 346 347 351 347 346
289 295 249 42 93 207 220 236 228 245 257 251 261 272 266 258 261 276 285 291 297 307 315 322 328 333 337 344 351 356 357 357 358 357 356 355 357 355 349 345 346 343 343 340
258 275 274 265 192 189 215 255 229 236 248 254 280 272 241 222 244 265 274 279 286 295 305 317 326 330 336 344 349 354 354 352 352 352 353 352 352 349 346 345 344 341 333 330
233 255 257 144 140 168 213 253 209 221 230 220 210 256 261 197 242 261 271 278 285 293 303 311 323 328 334 341 346 347 343 342 344 345 347 347 343 339 338 336 331 328 325 325
231 250 267 259 154 172 217 324 77 219 222 209 220 262 324 224 231 242 251 265 271 275 286 302 317 322 328 334 337 335 335 338 343 345 343 340 337 336 335 333 329 327 324 324
204 226 250 149 160 205 267 9 261 249 239 232 243 262 259 238 230 229 239 250 256 262 274 290 301 305 311 320 326 331 337 342 344 345 345 340 339 338 336 333 329 329 325 322
217 236 345 179 214 244 269 268 267 260 260 247 247 247 247 243 236 233 236 241 245 251 263 274 281 286 295 312 324 328 336 340 339 341 343 343 341 340 340 338 334 331 327 322
256 258 256 249 250 254 249 254 263 263 256 243 246 246 245 242 237 236 237 238 239 243 252 262 270 278 293 313 322 324 329 330 333 337 339 341 340 338 337 336 331 328 325 318
252 267 278 260 238 244 252 259 263 261 253 247 248 248 244 242 237 236 237 236 235 238 248 257 261 268 288 306 311 313 318 322 326 330 332 333 333 331 330 335 335 326 323 319
244 247 250 269 270 263 260 260 258 258 259 253 244 245 243 240 236 233 232 232 234 239 246 253 254 259 271 285 289 298 305 312 318 321 324 323 321 320 323 320 332 334 334 328
257 272 269 279 280 267 263 265 264 256 253 255 248 242 239 240 234 231 231 229 233 238 242 245 246 252 258 267 272 280 290 300 305 309 313 315 317 320 322 323 322 328 336 337
252 262 269 266 268 270 267 269 268 263 258 252 247 240 235 237 233 228 228 230 233 237 239 237 241 249 251 251 260 271 280 285 291 297 302 305 309 313 314 317 319 320 327 334
249 244 254 270 276 276 272 267 263 261 258 252 240 234 230 229 230 232 230 226 227 232 235 235 242 249 247 246 252 262 271 279 286 292 295 298 302 304 305 306 306 311 317 325
256 253 254 260 264 267 267 261 259 262 260 253 243 237 234 233 234 232 222 210 216 229 232 233 241 248 244 244 250 255 259 272 284 288 289 293 297 299 301 302 304 308 313 321
251 256 255 258 259 260 259 255 255 257 256 250 246 241 234 229 230 227 222 217 224 232 231 232 241 243 238 238 242 250 257 263 268 279 283 290 294 295 298 299 301 304 309 320
243 253 256 259 262 263 263 260 254 252 249 247 242 231 223 220 224 225 222 217 223 233 235 235 237 235 232 233 236 244 250 259 266 275 282 287 293 295 297 299 302 305 312 317
249 254 258 259 259 260 262 261 257 253 248 235 224 224 225 226 225 220 208 208 219 233 237 231 230 229 232 232 234 235 242 252 260 267 277 285 288 292 297 299 302 306 311 318
257 259 260 262 261 255 255 257 255 249 240 225 221 223 226 225 217 210 209 221 228 234 229 221 222 229 233 230 227 230 236 246 254 262 270 276 284 291 297 302 302 305 310 314
265 266 264 263 264 261 255 252 244 240 237 221 216 220 225 225 212 206 213 232 234 222 221 213 219 228 229 226 220 227 231 240 249 257 264 272 280 287 294 303 307 309 312 316
261 263 263 262 263 266 262 249 237 232 229 224 223 219 215 215 212 218 228 237 227 206 211 217 225 230 225 219 218 222 227 236 245 253 260 269 277 284 292 301 303 308 312 315
261 261 260 258 256 263 271 254 234 226 223 221 217 214 214 214 209 213 232 226 215 212 219 225 231 224 214 209 216 220 224 231 239 246 255 264 273 280 286 292 297 302 306 311
256 258 256 255 249 251 260 265 249 235 230 232 227 219 211 210 224 230 236 208 208 214 225 228 221 218 210 210 214 220 228 233 240 246 252 258 266 274 280 286 290 296 299 303
242 245 240 230 234 244 250 252 242 228 220 227 231 225 222 221 222 222 217 212 211 214 228 223 217 214 207 208 212 220 228 234 240 243 244 250 259 267 274 278 280 285 288 291
233 236 238 239 242 242 235 228 231 228 217 220 232 227 219 214 207 209 212 214 214 217 222 220 212 207 208 210 217 224 230 238 242 244 246 250 258 264 270 275 279 279 282 285
229 231 235 243 240 228 225 227 228 227 219 215 229 228 212 205 201 201 205 210 211 213 215 212 208 208 210 213 220 224 230 234 236 241 244 248 253 258 265 269 274 278 281 281